Le nostre stazioni meteo in Italia

Pubblicità
Il mio iltempo24.it
Carterhouse, Gran Bretagna (99129): Temperatura & dewpoint: 10.01.2017 14:00:00 - 16.01.2017 14:00:00 (GMT)Carterhouse, Gran Bretagna (99129): Temperatura -20cm & Temperatura -100cm: 10.01.2017 14:00:00 - 16.01.2017 14:00:00 (GMT)Carterhouse, Gran Bretagna (99129): precipitazioni: 10.01.2017 14:00:00 - 16.01.2017 14:00:00 (GMT)
Data & Tempo tt [°C] td [°C] tt -20cm [°C] tt -100cm [°C] rr [mm]
16.01.2017 14:00:00 8,5 7,3 - - 0,0
16.01.2017 13:00:00 8,2 6,9 - - 0,0
16.01.2017 12:00:00 7,7 6,5 - - 0,0
16.01.2017 11:00:00 7,0 6,8 - - 0,0
16.01.2017 10:00:00 6,8 6,8 - - 0,0
16.01.2017 09:00:00 7,0 7,0 4,2 5,7 0,0
16.01.2017 08:00:00 7,3 7,3 - - 0,0
16.01.2017 07:00:00 7,3 7,3 - - 0,0
16.01.2017 06:00:00 7,5 7,4 - - 0,0
16.01.2017 05:00:00 7,5 7,5 - - 0,0
16.01.2017 04:00:00 7,3 7,3 - - 0,2
16.01.2017 03:00:00 7,1 7,1 - - 0,0
16.01.2017 02:00:00 6,9 6,9 - - 0,0
16.01.2017 01:00:00 6,9 6,9 - - 0,0
16.01.2017 00:00:00 6,8 6,8 - - 0,0
15.01.2017 23:00:00 6,8 6,8 - - 0,2
15.01.2017 22:00:00 6,9 6,9 - - 0,0
15.01.2017 21:00:00 6,9 6,9 - - 0,2
15.01.2017 20:00:00 7,0 7,0 - - 0,2
15.01.2017 19:00:00 7,1 7,1 - - 0,2
15.01.2017 18:00:00 6,9 6,9 - - 0,2
15.01.2017 17:00:00 7,1 7,1 - - 0,0
15.01.2017 16:00:00 7,3 7,3 - - 0,0
15.01.2017 15:00:00 7,6 7,6 - - 0,2
15.01.2017 14:00:00 7,8 7,7 - - 0,0
15.01.2017 13:00:00 7,7 7,7 - - 0,0
15.01.2017 12:00:00 7,2 7,2 - - 0,0
15.01.2017 11:00:00 6,6 6,6 - - 0,0
15.01.2017 10:00:00 6,1 6,1 - - 0,4
15.01.2017 09:00:00 5,4 5,4 3,7 5,7 0,0
15.01.2017 08:00:00 5,0 5,0 - - 0,2
15.01.2017 07:00:00 4,6 4,6 - - 0,0
15.01.2017 06:00:00 3,9 3,7 - - 0,0
15.01.2017 05:00:00 3,7 3,4 - - 1,6
15.01.2017 04:00:00 3,0 2,6 - - 1,6
15.01.2017 03:00:00 1,5 1,4 - - 0,8
15.01.2017 02:00:00 1,2 1,1 - - 0,8
15.01.2017 01:00:00 1,4 1,1 - - 1,0
15.01.2017 00:00:00 1,2 1,1 - - 1,6
14.01.2017 23:00:00 0,7 0,5 - - 0,0
14.01.2017 22:00:00 1,1 0,0 - - 0,0
14.01.2017 21:00:00 1,0 -0,9 - - 0,0
14.01.2017 20:00:00 -0,1 -1,2 - - 0,0
14.01.2017 19:00:00 -0,8 -1,8 - - 0,0
14.01.2017 18:00:00 -1,2 -2,1 - - 0,0
14.01.2017 17:00:00 -2,3 -3,3 - - 0,0
14.01.2017 16:00:00 -0,2 -2,7 - - 0,0
14.01.2017 15:00:00 2,4 -1,8 - - 0,0
14.01.2017 14:00:00 3,0 -1,6 - - 0,0
14.01.2017 13:00:00 2,6 -1,8 - - 0,0
14.01.2017 12:00:00 1,9 -1,9 - - 0,2
14.01.2017 11:00:00 0,7 -1,4 - - 0,0
14.01.2017 10:00:00 -2,3 -3,2 - - 0,0
14.01.2017 09:00:00 -2,5 -2,5 4,0 5,9 0,0
14.01.2017 08:00:00 -3,4 -4,3 - - 0,0
14.01.2017 07:00:00 -1,6 -3,4 - - 0,0
14.01.2017 06:00:00 -0,8 -3,3 - - 0,0
14.01.2017 05:00:00 0,0 -2,4 - - 0,0
14.01.2017 04:00:00 -0,2 -1,3 - - 0,0
14.01.2017 03:00:00 -1,5 -2,3 - - 0,0
14.01.2017 02:00:00 -2,2 -3,3 - - 0,0
14.01.2017 01:00:00 -0,8 -2,4 - - 0,0
14.01.2017 00:00:00 -1,4 -3,3 - - 0,0
13.01.2017 23:00:00 -2,4 -4,7 - - 0,0
13.01.2017 22:00:00 -3,9 -6,7 - - 0,0
13.01.2017 21:00:00 -3,0 -5,7 - - 0,0
13.01.2017 20:00:00 -4,2 -6,4 - - 0,0
13.01.2017 19:00:00 -3,6 -5,1 - - 0,0
13.01.2017 18:00:00 -2,1 -3,9 - - 0,0
13.01.2017 17:00:00 -1,4 -4,2 - - 0,0
13.01.2017 16:00:00 -0,5 -5,5 - - 0,0
13.01.2017 15:00:00 0,2 -4,9 - - 0,0
13.01.2017 14:00:00 0,9 -4,0 - - 0,0
13.01.2017 13:00:00 1,1 -3,1 - - 0,6
13.01.2017 12:00:00 1,2 -2,7 - - 0,4
13.01.2017 11:00:00 1,3 -2,5 - - 0,0
13.01.2017 10:00:00 0,6 -1,9 - - 0,0
13.01.2017 09:00:00 0,3 -2,0 4,2 6,0 -
13.01.2017 08:00:00 0,7 -1,8 - - 0,0
13.01.2017 07:00:00 1,0 -1,0 - - 0,0
13.01.2017 06:00:00 0,3 -0,2 - - 0,0
13.01.2017 05:00:00 -1,0 -1,0 - - 0,0
13.01.2017 04:00:00 -1,0 -3,5 - - 0,0
13.01.2017 03:00:00 -2,0 -4,7 - - 0,0
13.01.2017 02:00:00 -2,6 -4,3 - - 0,0
13.01.2017 01:00:00 -3,6 -4,6 - - 0,0
13.01.2017 00:00:00 -3,2 -4,1 - - 0,0
12.01.2017 23:00:00 -2,8 -3,4 - - 0,0
12.01.2017 22:00:00 -2,6 -3,3 - - 0,0
12.01.2017 21:00:00 -2,1 -2,8 - - 0,0
12.01.2017 20:00:00 -1,6 -2,2 - - 0,0
12.01.2017 19:00:00 -2,0 -2,8 - - 0,0
12.01.2017 18:00:00 -2,0 -2,9 - - 0,0
12.01.2017 17:00:00 -1,9 -3,1 - - 0,0
12.01.2017 16:00:00 -1,3 -2,4 - - 0,2
12.01.2017 15:00:00 -0,3 -2,3 - - 0,2
12.01.2017 14:00:00 -0,5 -1,3 - - 0,2
12.01.2017 13:00:00 -0,5 -0,8 - - 0,4
12.01.2017 12:00:00 0,1 -1,0 - - 0,6
12.01.2017 11:00:00 -0,1 -0,5 - - 0,0
12.01.2017 10:00:00 -0,3 -0,5 - - 0,0
12.01.2017 09:00:00 -0,6 -0,8 4,7 6,0 0,0
12.01.2017 08:00:00 -0,8 -1,0 - - 0,0
12.01.2017 07:00:00 -0,3 -0,3 - - 0,0
12.01.2017 06:00:00 -0,6 -0,8 - - 0,0
12.01.2017 05:00:00 -0,5 -0,9 - - 0,0
12.01.2017 04:00:00 0,2 -0,4 - - 0,0
12.01.2017 03:00:00 -0,2 -1,3 - - 0,0
12.01.2017 02:00:00 0,2 -0,5 - - 0,0
12.01.2017 01:00:00 0,4 -0,8 - - 0,0
12.01.2017 00:00:00 0,2 -0,3 - - 0,0
11.01.2017 23:00:00 0,6 -1,0 - - 0,0
11.01.2017 22:00:00 0,2 -0,8 - - 0,0
11.01.2017 21:00:00 0,7 -0,3 - - 0,0
11.01.2017 20:00:00 1,2 -0,6 - - 0,0
11.01.2017 19:00:00 1,4 -1,3 - - 0,0
11.01.2017 18:00:00 1,8 -2,2 - - 0,0
11.01.2017 17:00:00 2,0 -2,1 - - 0,0
11.01.2017 16:00:00 1,8 -2,3 - - 0,0
11.01.2017 15:00:00 2,7 -1,4 - - 0,0
11.01.2017 14:00:00 2,3 -1,2 - - 0,0
11.01.2017 13:00:00 3,6 -1,0 - - 0,0
11.01.2017 12:00:00 3,1 0,3 - - 0,0
11.01.2017 11:00:00 3,4 0,6 - - 0,0
11.01.2017 10:00:00 3,5 1,0 - - 0,0
11.01.2017 09:00:00 3,7 0,3 5,0 6,0 0,0
11.01.2017 08:00:00 4,0 1,0 - - 0,0
11.01.2017 07:00:00 4,1 1,6 - - 0,2
11.01.2017 06:00:00 4,9 1,2 - - 0,0
11.01.2017 05:00:00 5,2 1,7 - - 0,0
11.01.2017 04:00:00 5,8 2,5 - - 0,0
11.01.2017 03:00:00 6,6 4,2 - - 0,2
11.01.2017 02:00:00 8,3 7,5 - - 0,0
11.01.2017 01:00:00 6,6 6,6 - - 0,2
11.01.2017 00:00:00 5,8 5,6 - - 0,0
10.01.2017 23:00:00 5,7 5,0 - - 0,0
10.01.2017 22:00:00 5,4 4,8 - - 0,0
10.01.2017 21:00:00 4,8 3,9 - - 0,0
10.01.2017 20:00:00 5,0 3,2 - - 0,0
10.01.2017 19:00:00 5,7 3,5 - - 0,0
10.01.2017 18:00:00 6,1 3,9 - - 0,0
10.01.2017 17:00:00 6,1 4,7 - - 0,2
10.01.2017 16:00:00 6,2 6,0 - - 0,0
10.01.2017 15:00:00 5,8 5,7 - - 0,0
10.01.2017 14:00:00 5,7 5,1 - - 0,0

tt = Temperatura
td = dewpoint
tt -20cm = Temperatura -20cm
tt -100cm = Temperatura -100cm
rr = precipitazioni

Stazioni seguenti

WeatherPro
AMSI
MeteoEarth